Regional Weather Roundup
Issued by NWS State College, PA

Home | Current Version | Previous Version | Graphics & Text | Print | Product List | Glossary Off
Versions: 1 2 3 4 5 6 7 8 9 10 11 12 13 14 15 16 17 18 19 20 21 22 23 24 25 26 27 28 29 30 31 32 33 34 35 36 37 38 39 40 41 42 43 44 45 46 47 48 49 50

000
ASUS41 KCTP 072203
RWRCTP

REGIONAL WEATHER ROUNDUP
NATIONAL WEATHER SERVICE STATE COLLEGE PA
500 PM EST WED DEC 07 2016

Note: "fair" indicates few or no clouds below 12,000 feet with no
significant weather and/or obstructions to visibility.

* = STATION THAT DOES NOT REPORT PRECIPITATION /E.G. RAIN...SNOW...ETC/
    THUNDER OR FOG.

PAZ002>004-007>009-013>016-020>023-029>032-072300-
WESTERN PENNSYLVANIA

CITY           SKY/WX    TMP DP  RH WIND       PRES   REMARKS
ERIE           PTCLDY    36  26  67 SW7       30.03R
MEADVILLE      CLOUDY    34  21  59 SW7       30.01R
FRANKLIN*        N/A     34  19  55 SW8       30.03S
NEW CASTLE     FAIR      36  22  56 SW5       30.06S
BEAVER COUNTY  NOT AVBL
BUTLER*        CLOUDY    37  21  52 W8        30.07S
PITTSBURGH INT CLOUDY    39  22  50 W6        30.06R
PITTSBURGH     CLOUDY    38  19  46 W9        30.06R
INDIANA*       MOCLDY    37  23  56 W8        30.06R
LATROBE        MOCLDY    37  21  52 W9        30.07R
WASHINGTON CO* CLOUDY    39  19  45 SW6       30.07S
$$

PAZ004>006-010>012-017>019-024>028-033>037-041-042-045-046-049>053-072300-
CENTRAL PENNSYLVANIA

CITY           SKY/WX    TMP DP  RH WIND       PRES   REMARKS
BRADFORD       CLEAR     34  22  61 W3        29.97R
DUBOIS         CLOUDY    36  17  46 W8        30.00R
CLEARFIELD     CLOUDY    38  21  50 SW7       30.01R
JOHNSTOWN      CLOUDY    34  18  52 W9        29.99S
ALTOONA        PTCLDY    38  20  48 W7        30.03R
STATE COLLEGE  CLEAR     39  23  52 W10       30.02R
WILLIAMSPORT   PTCLDY    42  27  55 CALM      30.02R
SELINSGROVE    PTCLDY    42  30  62 CALM      30.03R
FT INDIANTOWN  NOT AVBL
CAPITAL CITY   PTCLDY    45  29  53 SW3       30.04R
HARRISBURG     MOCLDY    41  35  79 CALM      30.03R
YORK           PTCLDY    39  34  82 CALM      30.03S
$$

PAZ038>040-043-044-047-048-054-055-060>062-067>071-072300-
EASTERN PENNSYLVANIA

CITY           SKY/WX    TMP DP  RH WIND       PRES   REMARKS
SCRANTON       CLOUDY    41  31  67 SW6       30.00R
MOUNT POCONO   CLOUDY    35  30  82 W6        29.97R
ALLENTOWN      CLOUDY    42  32  67 CALM      30.02R
QUAKERTOWN*    PTCLDY    43  34  70 CALM      30.03R
READING        CLEAR     43  29  57 W5        30.03R
LANCASTER      CLEAR     42  30  62 CALM      30.04R
COATESVILLE    CLEAR     39  28  65 NW7       30.05R
POTTSTOWN      CLEAR     40  31  70 W5        30.04R
BLUE BELL      CLEAR     37  36  93 CALM      30.03R
DOYLESTOWN     PTCLDY    44  36  73 CALM      30.02R
WILLOW GROVE   NOT AVBL
NORTH PHILA    CLEAR     45  35  68 NW3       30.05R
PHILADELPHIA   PTCLDY    46  35  65 W5        30.05R
$$



USA.gov is the U.S. government's official web portal to all federal, state and local government web resources and services.